TimeEDT,TemperatureF,Dew PointF,Humidity,Sea Level PressureIn,VisibilityMPH,Wind Direction,Wind SpeedMPH,Gust SpeedMPH,PrecipitationIn,Events,Conditions,WindDirDegrees,DateUTC
12:15 AM,18.5,18.1,98,30.03,10.0,North,-9999.0,-,N/A,,Clear,0,2013-03-22 04:15:00
12:35 AM,18.5,18.0,98,30.04,10.0,North,-9999.0,-,N/A,,Clear,0,2013-03-22 04:35:00
12:55 AM,18.1,17.6,98,30.04,10.0,North,-9999.0,-,N/A,,Clear,0,2013-03-22 04:55:00
1:15 AM,17.6,17.2,98,30.03,10.0,North,-9999.0,-,N/A,,Clear,0,2013-03-22 05:15:00
1:35 AM,17.4,16.9,98,30.03,10.0,North,-9999.0,-,N/A,,Clear,0,2013-03-22 05:35:00
1:55 AM,17.2,16.7,98,30.03,10.0,North,-9999.0,-,N/A,,Clear,0,2013-03-22 05:55:00
2:15 AM,16.7,16.5,99,30.03,10.0,North,-9999.0,-,N/A,,Clear,0,2013-03-22 06:15:00
2:35 AM,16.9,16.5,98,30.03,10.0,North,-9999.0,-,N/A,,Clear,0,2013-03-22 06:35:00
2:55 AM,16.5,15.8,97,30.02,10.0,North,-9999.0,-,N/A,,Clear,0,2013-03-22 06:55:00
3:15 AM,16.5,15.8,97,30.02,10.0,North,-9999.0,-,N/A,,Clear,0,2013-03-22 07:15:00
3:35 AM,16.3,15.6,97,30.02,10.0,North,-9999.0,-,N/A,,Clear,0,2013-03-22 07:35:00
3:55 AM,15.8,15.3,98,30.02,10.0,North,-9999.0,-,N/A,,Clear,0,2013-03-22 07:55:00
4:15 AM,15.8,15.1,97,30.02,10.0,North,-9999.0,-,N/A,,Clear,0,2013-03-22 08:15:00
4:35 AM,15.6,14.9,97,30.01,10.0,North,-9999.0,-,N/A,,Clear,0,2013-03-22 08:35:00
4:55 AM,15.6,15.1,98,30.01,10.0,North,-9999.0,-,N/A,,Clear,0,2013-03-22 08:55:00
5:15 AM,15.4,14.9,98,30.01,10.0,North,-9999.0,-,N/A,,Clear,0,2013-03-22 09:15:00
5:35 AM,15.3,14.5,97,30.01,10.0,North,-9999.0,-,N/A,,Clear,0,2013-03-22 09:35:00
5:55 AM,15.3,14.4,96,30.02,10.0,North,-9999.0,-,N/A,,Clear,0,2013-03-22 09:55:00
6:15 AM,14.7,14.0,97,30.03,10.0,North,-9999.0,-,N/A,,Clear,0,2013-03-22 10:15:00
6:35 AM,14.7,14.0,97,30.04,10.0,North,-9999.0,-,N/A,,Clear,0,2013-03-22 10:35:00
6:55 AM,14.5,13.6,96,30.04,10.0,North,-9999.0,-,N/A,,Clear,0,2013-03-22 10:55:00
7:15 AM,14.4,13.5,96,30.05,10.0,North,-9999.0,-,N/A,,Clear,0,2013-03-22 11:15:00
7:35 AM,14.4,13.6,97,30.05,10.0,North,-9999.0,-,N/A,,Clear,0,2013-03-22 11:35:00
7:55 AM,14.5,13.6,96,30.06,10.0,North,-9999.0,-,N/A,,Clear,0,2013-03-22 11:55:00
8:15 AM,14.9,14.0,96,30.07,10.0,North,-9999.0,-,N/A,,Clear,0,2013-03-22 12:15:00
8:35 AM,15.8,14.9,96,30.08,10.0,North,-9999.0,-,N/A,,Clear,0,2013-03-22 12:35:00
8:55 AM,17.4,16.5,96,30.09,10.0,North,-9999.0,-,N/A,,Clear,0,2013-03-22 12:55:00
9:15 AM,19.2,18.3,96,30.09,10.0,North,-9999.0,-,N/A,,Clear,0,2013-03-22 13:15:00
9:35 AM,24.6,23.7,96,30.09,10.0,North,-9999.0,-,N/A,,Clear,0,2013-03-22 13:35:00
9:55 AM,26.8,22.6,84,30.09,10.0,North,-9999.0,-,N/A,,Clear,0,2013-03-22 13:55:00
10:35 AM,29.8,18.5,63,30.09,10.0,North,-9999.0,-,N/A,,Clear,0,2013-03-22 14:35:00
10:55 AM,31.8,18.3,57,30.09,10.0,North,-9999.0,-,N/A,,Clear,0,2013-03-22 14:55:00
11:15 AM,32.0,19.2,59,30.08,10.0,North,-9999.0,-,N/A,,Clear,0,2013-03-22 15:15:00
11:35 AM,32.5,19.0,58,30.08,10.0,North,-9999.0,-,N/A,,Clear,0,2013-03-22 15:35:00
11:55 AM,34.0,19.6,56,30.08,10.0,North,-9999.0,-,N/A,,Clear,0,2013-03-22 15:55:00
12:15 PM,34.9,19.6,54,30.08,10.0,North,-9999.0,-,N/A,,Clear,0,2013-03-22 16:15:00
12:35 PM,35.2,18.7,51,30.08,10.0,North,-9999.0,-,N/A,,Clear,0,2013-03-22 16:35:00
12:55 PM,35.6,19.0,51,30.06,10.0,North,-9999.0,-,N/A,,Clear,0,2013-03-22 16:55:00
1:15 PM,37.0,19.0,48,30.05,10.0,North,-9999.0,-,N/A,,Clear,0,2013-03-22 17:15:00
1:35 PM,38.1,20.7,49,30.04,10.0,North,-9999.0,-,N/A,,Clear,0,2013-03-22 17:35:00
1:55 PM,39.2,19.8,46,30.03,10.0,North,-9999.0,-,N/A,,Clear,0,2013-03-22 17:55:00
2:15 PM,40.1,17.8,41,30.02,10.0,North,-9999.0,-,N/A,,Clear,0,2013-03-22 18:15:00
2:35 PM,41.7,18.9,40,30.01,10.0,North,-9999.0,-,N/A,,Clear,0,2013-03-22 18:35:00
3:15 PM,43.2,19.4,39,30.01,10.0,North,-9999.0,-,N/A,,Clear,0,2013-03-22 19:15:00
3:35 PM,44.4,18.9,36,30.01,10.0,North,-9999.0,-,N/A,,Clear,0,2013-03-22 19:35:00
3:55 PM,44.8,18.0,34,30.01,10.0,North,-9999.0,-,N/A,,Clear,0,2013-03-22 19:55:00
4:15 PM,44.8,17.4,33,30.01,10.0,North,-9999.0,-,N/A,,Clear,0,2013-03-22 20:15:00
4:35 PM,45.3,17.1,32,30.00,10.0,North,-9999.0,-,N/A,,Clear,0,2013-03-22 20:35:00
4:55 PM,45.3,17.2,33,30.00,10.0,North,-9999.0,-,N/A,,Clear,0,2013-03-22 20:55:00
5:15 PM,44.6,16.9,33,30.00,10.0,North,-9999.0,-,N/A,,Clear,0,2013-03-22 21:15:00
5:35 PM,44.8,17.2,33,30.00,10.0,North,-9999.0,-,N/A,,Clear,0,2013-03-22 21:35:00
5:55 PM,45.3,16.5,32,29.99,10.0,North,-9999.0,-,N/A,,Clear,0,2013-03-22 21:55:00
6:15 PM,43.9,17.8,35,29.99,10.0,North,-9999.0,-,N/A,,Clear,0,2013-03-22 22:15:00
6:35 PM,43.3,15.4,32,29.99,10.0,North,-9999.0,-,N/A,,Clear,0,2013-03-22 22:35:00
6:55 PM,41.9,16.5,36,30.00,10.0,North,-9999.0,-,N/A,,Clear,0,2013-03-22 22:55:00
7:15 PM,39.7,19.9,45,30.00,10.0,North,-9999.0,-,N/A,,Clear,0,2013-03-22 23:15:00
7:35 PM,37.8,21.4,52,30.01,10.0,North,-9999.0,-,N/A,,Clear,0,2013-03-22 23:35:00
7:55 PM,34.5,23.5,64,30.01,10.0,North,-9999.0,-,N/A,,Clear,0,2013-03-22 23:55:00
8:15 PM,33.1,24.4,71,30.01,10.0,North,-9999.0,-,N/A,,Clear,0,2013-03-23 00:15:00
8:35 PM,32.4,24.8,74,30.02,10.0,North,-9999.0,-,N/A,,Scattered Clouds,0,2013-03-23 00:35:00
8:55 PM,32.0,24.4,74,30.03,10.0,North,-9999.0,-,N/A,,Mostly Cloudy,0,2013-03-23 00:55:00
9:15 PM,31.6,23.5,72,30.03,10.0,North,-9999.0,-,N/A,,Mostly Cloudy,0,2013-03-23 01:15:00
9:35 PM,31.5,24.1,74,30.03,10.0,North,-9999.0,-,N/A,,Mostly Cloudy,0,2013-03-23 01:35:00
9:55 PM,31.1,24.8,77,30.03,10.0,North,-9999.0,-,N/A,,Scattered Clouds,0,2013-03-23 01:55:00
10:15 PM,31.1,24.6,77,30.03,10.0,North,-9999.0,-,N/A,,Mostly Cloudy,0,2013-03-23 02:15:00
10:35 PM,31.8,25.2,76,30.04,10.0,North,-9999.0,-,N/A,,Overcast,0,2013-03-23 02:35:00
10:55 PM,32.0,25.5,77,30.04,10.0,North,-9999.0,-,N/A,,Overcast,0,2013-03-23 02:55:00
11:15 PM,32.0,25.7,78,30.05,10.0,North,-9999.0,-,N/A,,Overcast,0,2013-03-23 03:15:00
11:35 PM,31.5,26.6,82,30.05,10.0,North,-9999.0,-,N/A,,Mostly Cloudy,0,2013-03-23 03:35:00
11:55 PM,30.9,26.4,83,30.05,10.0,North,-9999.0,-,N/A,,Mostly Cloudy,0,2013-03-23 03:55:00